Flag Weather past 2 weeks in Cochabamba, Bolivia

Now
66 °F

Mostly cloudy.


Feels Like: 66 °F
Forecast: 51 / 65 °F
Wind: No wind

Location: Cochabamba Airport

Current Time: Nov 22, 2014 at 8:10:41 PM

Latest Report: Nov 22, 2014 at 7:00 PM


Visibility: N/A

Pressure: 30.15 "Hg

Humidity: 56%

Dew point: 50 °F

Location of CochabambaLocation

Historic Weather in Cochabamba — Graph

°F

Cochabamba temperature yesterday

Maximum temperature yesterday: 82 °F (at 4:00 PM)
Minimum temperature yesterday: 55 °F (at 4:00 AM)
Average temperature yesterday: 69 °F

Past Weeks' High & Low Weather Summary

 TemperatureHumidityPressure
High88 °F (Nov 12, 3:00 PM)100% (Nov 13, 2:00 AM)30.45 "Hg (Nov 13, 2:00 AM)
Low52 °F (Nov 16, 5:00 AM)8% (Nov 19, 3:00 PM)29.95 "Hg (Nov 12, 4:00 PM)
Average67 °F48%30.21 "Hg
* Reported Nov 7 7:00 PM — Nov 22 7:00 PM, Cochabamba, Weather by CustomWeather, © 2014

Note: Actual official high and low records may vary slightly from our data, if they occured in-between our weather recording intervals... More about our weather records

Advertising

Cochabamba weather history for previous 24 hours

 ConditionsComfort  
Time TempWeatherWind HumidityBarometerVisibility
7:00 PM
Nov 22
66 °FMostly cloudy.No wind56%30.15 "HgN/A
6:00 PM68 °FPartly sunny.No wind49%30.12 "HgN/A
5:00 PM68 °FPartly sunny.6 mph49%30.12 "HgN/A
4:00 PM68 °FBroken clouds.7 mph49%30.12 "HgN/A
3:00 PM64 °FSprinkles. Broken clouds.5 mph60%30.18 "HgN/A
2:00 PM75 °FBroken clouds.7 mph27%30.15 "HgN/A
1:00 PM75 °FBroken clouds.12 mph34%30.18 "HgN/A
12:00 PM75 °FPartly sunny.5 mph36%30.21 "HgN/A
11:00 AM72 °FPartly sunny.5 mph44%30.27 "HgN/A
10:00 AM70 °FBroken clouds.6 mph43%30.30 "HgN/A
9:00 AM68 °FPartly sunny.6 mph46%30.30 "HgN/A
8:00 AM66 °FBroken clouds.No wind46%30.30 "HgN/A
7:00 AM61 °FBroken clouds.No wind59%30.27 "HgN/A
6:00 AM59 °FBroken clouds.No wind59%30.24 "HgN/A
5:00 AM59 °FPassing clouds.No wind59%30.21 "HgN/A
4:00 AM63 °FPartly cloudy.No wind52%30.18 "HgN/A
3:00 AM64 °FPartly cloudy.13 mph46%30.18 "HgN/A
2:00 AM66 °FPassing clouds.9 mph43%30.18 "HgN/A
1:00 AM66 °FPassing clouds.9 mph43%30.18 "HgN/A
12:00 AM66 °FPassing clouds.5 mph40%30.18 "HgN/A
11:00 PM
Nov 21
66 °FPassing clouds.3 mph40%30.18 "HgN/A
10:00 PM68 °FPassing clouds.6 mph38%30.18 "HgN/A
9:00 PM70 °FPassing clouds.9 mph35%30.12 "HgN/A
8:00 PM72 °FPassing clouds.9 mph33%30.09 "HgN/A
Weather by CustomWeather, © 2014

See weather overviewHow to use our weather pages